MST,Max TemperatureF,Mean TemperatureF,Min TemperatureF,Max Dew PointF,MeanDew PointF,Min DewpointF,Max Humidity, Mean Humidity, Min Humidity, Max Sea Level PressureIn, Mean Sea Level PressureIn, Min Sea Level PressureIn, Max VisibilityMiles, Mean VisibilityMiles, Min VisibilityMiles, Max Wind SpeedMPH, Mean Wind SpeedMPH, Max Gust SpeedMPH,PrecipitationIn, CloudCover, Events, WindDirDegrees
2013-2-1,34,22,10,28,22,5,100,87,68,30.42,30.24,30.13,10,6,0,10,7,,0.00,6,Fog-Snow,147
2013-2-2,34,18,3,24,16,0,93,83,64,30.55,30.43,30.34,10,6,0,8,5,,0.00,5,Fog,162
2013-2-3,27,14,0,24,9,-4,93,86,75,30.40,30.27,30.13,10,6,0,8,2,,0.01,2,Fog,85
2013-2-4,30,20,10,26,16,7,100,90,72,30.27,30.16,30.08,10,5,0,12,3,,0.00,7,Fog,231
2013-2-5,37,31,25,27,22,15,93,68,45,30.11,29.99,29.86,10,8,1,13,9,,0.02,5,Snow,152
2013-2-6,32,21,10,25,20,7,100,88,52,30.26,30.07,29.84,10,5,0,15,6,,0.00,7,Fog-Snow,356
2013-2-7,26,13,0,15,6,-5,88,76,58,30.30,30.17,29.97,10,10,10,12,5,,0.00,0,,73
2013-2-8,34,22,10,23,16,4,96,70,46,29.97,29.81,29.65,10,10,10,7,3,,0.00,3,,30
2013-2-9,32,24,17,19,18,15,93,84,54,29.82,29.72,29.62,10,6,1,9,4,,0.00,6,Snow,64
2013-2-10,24,12,-2,19,7,-10,93,76,42,30.21,29.93,29.77,10,8,0,22,6,,0.00,3,Fog-Snow,23
2013-2-11,19,1,-17,5,-8,-24,79,67,39,30.45,30.32,30.23,10,10,10,12,3,,0.00,1,,83
2013-2-12,25,16,8,19,15,3,93,82,71,30.41,30.27,30.19,10,8,1,12,6,,0.00,8,Snow,160
2013-2-13,29,26,23,25,22,19,93,85,78,30.30,30.18,30.12,10,5,0,17,12,,0.00,8,Fog-Snow,170
2013-2-14,29,22,14,25,18,9,100,82,58,30.43,30.29,30.13,10,9,1,8,4,,0.01,6,Snow,126
2013-2-15,31,20,8,21,16,5,92,79,59,30.57,30.48,30.37,10,10,10,9,4,,0.00,4,,92
2013-2-16,36,26,16,25,20,10,81,72,57,30.45,30.25,29.93,10,10,10,9,7,,0.00,4,,161
2013-2-17,32,25,18,25,19,11,93,76,54,30.04,29.85,29.74,10,7,0,21,11,26,0.00,7,Fog-Snow,236
2013-2-18,27,14,1,13,8,-4,84,72,49,30.15,30.10,30.00,10,10,5,7,4,,0.00,4,Snow,114
2013-2-19,34,17,0,23,13,-6,93,76,39,30.02,29.76,29.66,10,8,0,15,5,,0.00,5,Fog,136
2013-2-20,30,20,10,25,22,4,93,89,60,29.79,29.70,29.65,10,4,0,12,5,,0.00,7,Fog-Snow,32
2013-2-21,23,14,6,21,16,1,93,86,72,30.02,29.86,29.74,10,8,2,9,7,,0.00,8,Snow,359
2013-2-22,24,16,8,20,14,5,93,84,68,30.13,29.98,29.87,10,7,1,14,6,,0.00,8,Snow,148
2013-2-23,25,17,8,22,18,5,100,87,74,30.01,29.73,29.64,10,3,0,24,9,18,0.00,7,Fog-Snow,204
2013-2-24,23,8,-6,11,0,-11,87,75,57,30.47,30.28,30.04,10,10,10,8,5,,0.03,0,,93
2013-2-25,25,12,-1,16,12,-7,93,78,58,30.34,30.08,29.93,10,7,1,13,7,20,0.00,7,Snow,169
2013-2-26,23,11,-1,16,10,-6,93,84,66,30.45,30.10,29.93,10,8,1,12,4,,0.00,6,Snow,39
2013-2-27,27,10,-6,12,5,-11,85,76,53,30.56,30.44,30.26,10,10,10,9,4,,0.02,5,,152
2013-2-28,27,19,11,22,18,6,92,82,69,30.53,30.42,30.32,10,6,1,12,6,,0.00,7,Snow,170